Wind_Speed
32 31 31 31 30 29 28 28 27 25 23 22 22 22 22 21 21 21 20 20 19 18 17 17 17 16 16 15 15 15 15 15 15 16 15 16 16 16 16 16 16 16 16 16
33 33 31 30 31 30 29 28 28 27 25 24 23 23 23 23 24 25 24 24 23 21 20 20 20 19 19 18 17 17 17 18 18 19 18 18 18 18 18 17 18 18 18 19
35 34 33 32 32 32 31 30 30 30 28 27 26 25 25 25 26 26 26 27 26 26 24 23 23 22 21 20 20 20 20 20 20 20 21 20 20 20 20 20 20 20 21 20
36 35 35 34 33 33 33 32 31 31 30 28 27 26 26 27 28 28 27 27 26 26 27 26 24 24 22 22 22 23 23 23 24 24 23 23 23 22 22 23 23 23 23 23
36 36 35 34 33 34 34 34 34 33 31 31 30 29 29 29 30 28 28 28 28 29 29 27 26 25 25 24 25 25 25 26 26 26 25 25 25 25 25 26 26 26 26 26
37 37 36 35 35 35 35 35 36 36 35 33 32 32 31 31 31 31 30 30 29 30 29 29 28 27 27 27 27 27 27 28 28 28 28 27 27 28 28 29 29 29 29 29
37 38 38 37 36 36 37 37 37 36 36 36 35 34 34 34 34 34 33 32 31 30 30 30 30 30 30 29 29 29 29 30 30 30 30 30 30 30 31 31 31 31 31 31
37 37 37 36 36 37 37 38 38 38 38 38 37 36 36 36 36 36 35 34 33 32 31 31 31 32 32 32 32 32 32 32 32 32 32 33 32 32 33 34 34 33 33 33
37 37 37 36 36 36 37 38 38 39 39 38 38 38 38 38 37 37 37 36 36 35 34 34 33 33 34 34 35 34 34 35 35 34 34 35 35 35 35 35 36 35 35 36
36 37 36 36 36 37 37 37 37 38 38 37 38 38 38 38 38 38 38 37 37 37 37 35 35 35 35 36 36 37 37 37 37 37 37 37 37 38 38 37 38 38 37 37
36 36 36 37 38 37 36 36 37 37 38 37 37 38 38 38 38 38 38 37 37 37 36 36 36 36 36 36 37 38 38 39 39 39 39 39 38 39 39 39 39 39 38 38
36 36 37 37 37 37 36 36 36 37 37 37 38 38 39 40 39 39 38 38 37 37 37 37 37 36 37 37 37 38 38 39 39 39 39 40 40 39 39 40 39 39 39 39
36 37 38 37 37 37 37 37 38 38 38 40 40 40 39 39 39 38 39 39 38 37 37 37 37 37 37 38 38 38 38 39 39 39 39 39 40 40 40 40 40 40 40 40
35 35 35 36 35 35 35 35 37 38 38 39 41 40 38 37 37 38 39 39 37 36 36 37 37 36 37 38 39 39 39 39 39 39 39 39 40 40 40 40 40 40 40 40
33 34 34 33 33 33 33 34 34 35 36 37 38 39 38 37 36 36 37 37 37 37 37 37 36 36 37 38 39 39 39 39 38 38 38 39 39 39 39 39 40 40 41 40
31 32 32 32 30 31 31 33 34 33 34 35 35 36 37 38 37 36 35 35 35 36 36 35 35 35 36 37 37 38 38 38 37 38 38 39 39 39 39 39 39 40 40 40
29 30 30 30 30 30 31 30 30 30 31 33 34 34 34 34 33 34 34 33 33 33 33 33 34 35 35 35 36 36 36 36 36 36 37 37 38 38 38 39 38 38 37 36
25 25 27 28 28 27 27 27 27 28 29 29 31 31 30 31 31 31 30 31 31 31 31 32 32 32 33 34 34 35 35 35 35 35 35 36 36 37 37 36 37 36 36 35
22 23 24 24 25 25 25 26 26 26 25 26 25 25 25 26 26 27 27 27 28 30 30 30 31 31 31 31 31 31 31 31 32 32 32 33 34 34 34 34 34 33 33 34
19 19 20 20 20 21 22 23 23 23 22 22 21 21 21 22 23 23 24 25 26 26 27 27 27 27 27 28 28 28 28 28 28 29 29 30 31 31 31 31 31 32 32 33
15 16 17 17 18 18 19 19 19 18 18 19 20 20 20 20 21 22 24 24 24 24 24 25 25 25 25 25 25 25 25 25 26 26 26 27 27 27 27 27 28 29 30 31
13 14 15 16 16 16 16 16 16 16 17 18 18 18 19 19 20 20 20 20 20 20 21 22 21 21 21 21 22 22 23 24 24 24 25 24 25 24 24 25 25 26 26 27
11 12 12 13 13 12 13 13 14 14 15 14 15 15 15 16 16 17 17 17 18 18 19 19 19 19 19 20 20 21 22 22 22 22 22 22 23 23 24 24 25 25 26 27
11 11 11 11 10 11 11 12 12 12 13 13 13 13 13 14 15 15 15 16 16 17 17 18 18 18 19 19 19 20 20 21 21 21 21 22 23 23 24 25 26 27 27 27
9 9 9 9 9 9 9 9 10 11 11 11 11 12 12 13 14 14 14 14 14 15 15 16 16 17 17 17 18 19 19 20 20 21 22 22 23 24 24 25 26 26 26 27
9 8 8 8 8 8 9 9 10 10 10 11 11 12 12 13 13 13 13 13 13 14 15 15 16 16 16 16 17 17 18 19 20 22 22 22 23 24 24 24 25 26 27 27
7 8 8 8 8 8 9 9 9 9 9 9 10 11 12 12 12 12 13 13 14 15 15 15 16 16 16 17 17 18 19 20 21 21 21 22 23 24 25 25 26 27 27 28
Wind_Direction
236 231 229 230 233 235 239 243 248 248 247 247 250 254 258 261 263 263 264 267 265 260 260 264 267 272 269 271 273 274 274 276 277 277 277 278 281 284 284 283 284 287 288 291
237 236 232 231 231 234 238 242 246 248 247 248 249 253 257 259 262 265 267 268 267 261 260 264 269 270 270 268 271 275 277 277 276 277 277 276 278 280 281 282 284 285 286 289
235 235 234 232 230 231 234 239 243 244 246 248 250 252 255 259 262 264 268 270 266 265 264 266 271 273 268 265 268 271 274 274 275 276 276 276 276 278 279 281 282 285 286 288
237 236 236 234 233 233 235 239 242 244 244 246 248 251 254 257 260 264 267 268 268 267 268 267 269 273 267 265 268 269 271 271 273 273 274 274 276 278 279 280 280 282 284 287
240 239 240 238 236 235 237 239 241 244 245 247 250 250 252 256 259 262 265 268 270 270 270 268 268 269 268 265 265 266 268 269 270 272 272 273 275 276 278 280 281 283 283 285
239 241 241 240 240 240 241 243 242 243 245 248 249 249 252 256 260 263 265 266 268 270 270 270 268 268 268 265 264 265 266 267 269 268 270 271 273 275 277 279 281 281 283 285
240 242 243 243 243 242 243 245 245 245 245 246 247 250 253 255 259 262 265 267 268 269 269 269 268 268 268 266 265 265 265 266 269 269 271 272 273 276 277 278 279 280 282 284
241 243 245 246 246 244 245 245 245 245 246 246 248 251 253 255 257 260 262 264 266 266 266 267 266 266 266 266 266 265 266 267 269 269 271 273 274 275 276 277 278 279 281 283
243 246 249 249 248 247 247 246 247 249 250 250 250 252 254 255 256 258 259 261 263 265 265 265 265 266 266 266 267 268 269 270 270 271 273 275 275 276 276 276 277 279 281 283
244 247 248 248 249 248 247 247 247 249 251 250 251 252 254 255 256 257 257 259 262 264 264 265 265 266 267 267 268 269 270 272 272 273 274 274 275 276 276 277 277 279 282 283
247 249 249 248 248 248 247 247 245 245 249 251 252 253 254 255 255 256 257 258 259 262 264 264 264 266 267 268 268 269 270 271 272 272 274 274 274 275 276 277 279 280 281 283
247 249 249 248 247 249 248 246 245 246 247 250 252 253 255 257 258 258 257 258 260 262 264 264 264 265 266 267 268 269 270 271 272 273 273 274 274 273 275 277 278 279 280 281
249 250 249 249 250 250 249 247 247 248 248 250 253 255 256 258 259 259 258 259 261 262 263 264 265 266 266 267 269 270 271 272 273 273 273 273 274 273 274 275 276 278 279 280
249 250 249 250 250 249 249 248 247 248 250 253 256 258 259 260 259 260 258 259 261 263 262 264 266 267 267 268 269 270 271 272 273 273 273 274 275 274 274 274 275 276 278 279
248 249 249 250 250 251 251 251 251 251 252 254 257 260 261 262 261 261 260 260 260 260 262 265 268 269 268 269 270 271 271 272 272 273 274 275 276 275 275 275 275 276 277 278
249 250 250 250 251 252 253 253 253 252 253 255 257 258 260 261 261 261 260 259 260 261 263 267 268 268 269 270 270 271 271 271 272 273 275 276 275 275 275 275 276 277 277 278
248 248 249 250 252 254 254 253 253 253 254 257 258 259 259 260 259 259 257 257 258 262 264 266 267 268 269 271 271 272 272 272 273 275 275 276 276 276 275 275 276 278 278 277
249 250 252 251 250 249 251 252 253 254 255 258 260 260 259 258 259 259 257 258 260 262 264 266 268 269 270 271 273 273 273 272 273 275 277 278 279 277 276 276 277 278 280 279
251 251 253 252 249 248 251 252 254 256 257 258 258 256 256 257 257 259 260 259 260 263 265 268 269 270 271 271 273 274 274 273 273 275 276 278 280 279 279 279 279 280 280 282
249 248 249 248 249 251 252 250 251 254 253 253 254 254 257 258 257 258 260 262 265 266 267 268 270 271 272 272 273 274 275 275 276 278 280 281 282 282 282 281 281 281 281 283
253 253 251 247 248 251 252 252 250 248 247 249 252 254 257 259 258 259 262 263 265 266 266 267 269 271 272 273 274 274 275 277 278 279 281 282 284 285 285 283 283 284 284 284
254 254 252 247 247 248 246 246 245 245 245 246 248 252 255 256 256 259 262 266 266 266 266 267 269 271 274 276 276 276 277 279 280 282 282 283 284 285 286 286 288 289 288 289
250 251 249 245 241 240 239 243 244 245 247 249 252 254 254 256 259 261 266 269 270 271 270 269 271 272 276 278 279 280 280 279 280 282 283 284 285 285 287 290 291 291 292 294
249 246 242 236 235 236 237 240 242 246 249 253 255 257 260 261 260 262 265 268 271 275 275 273 273 274 276 277 280 282 282 281 281 284 287 289 291 290 291 293 294 295 295 295
240 239 235 233 236 236 239 244 247 251 253 253 256 259 262 264 265 263 264 267 272 276 278 279 278 277 278 281 283 285 286 285 286 288 289 289 291 293 294 294 293 294 296 297
237 233 234 239 240 243 248 251 254 254 253 254 256 259 263 265 266 265 263 266 272 276 279 281 282 283 283 284 285 287 288 288 289 289 291 294 296 298 297 296 296 297 298 299
233 235 237 240 241 244 251 254 257 257 256 260 265 268 268 267 267 267 267 269 272 276 280 281 282 284 284 287 289 292 293 294 294 293 292 293 296 298 299 299 299 299 299 300
Height
5847 5851 5854 5857 5859 5861 5863 5864 5866 5869 5870 5872 5874 5875 5876 5876 5877 5878 5880 5880 5880 5881 5882 5883 5884 5885 5884 5883 5884 5885 5885 5885 5884 5883 5883 5882 5881 5880 5879 5878 5877 5876 5875 5874
5840 5843 5846 5850 5853 5855 5857 5859 5860 5862 5864 5866 5868 5869 5870 5871 5872 5873 5874 5875 5876 5876 5877 5878 5879 5879 5879 5879 5879 5879 5879 5879 5879 5879 5878 5877 5877 5876 5875 5874 5873 5871 5870 5869
5832 5835 5838 5842 5845 5848 5850 5852 5854 5855 5858 5859 5861 5863 5864 5865 5866 5866 5867 5868 5868 5869 5871 5872 5872 5872 5872 5873 5873 5873 5873 5873 5873 5873 5872 5872 5871 5870 5869 5868 5867 5866 5864 5863
5823 5828 5831 5836 5838 5840 5843 5845 5846 5848 5850 5852 5854 5856 5857 5858 5859 5860 5861 5861 5862 5863 5864 5864 5865 5865 5865 5867 5867 5867 5867 5867 5867 5867 5866 5865 5865 5864 5863 5861 5860 5859 5858 5857
5814 5818 5822 5827 5829 5831 5834 5836 5839 5841 5843 5844 5846 5848 5850 5851 5852 5853 5854 5854 5855 5856 5857 5857 5858 5859 5859 5860 5860 5860 5860 5860 5860 5859 5859 5858 5857 5857 5856 5855 5853 5852 5850 5849
5805 5808 5812 5818 5820 5822 5826 5828 5831 5833 5835 5837 5839 5841 5842 5843 5844 5845 5847 5848 5848 5848 5849 5850 5850 5851 5852 5852 5852 5852 5853 5852 5852 5851 5851 5850 5850 5849 5848 5847 5845 5844 5842 5840
5796 5799 5802 5807 5811 5814 5817 5820 5822 5824 5826 5828 5830 5832 5834 5835 5836 5837 5838 5840 5840 5841 5842 5842 5842 5843 5843 5844 5844 5844 5844 5844 5843 5842 5842 5842 5841 5840 5839 5838 5836 5835 5834 5832
5787 5790 5795 5797 5800 5804 5806 5809 5811 5814 5816 5818 5821 5823 5825 5827 5828 5828 5829 5830 5831 5832 5833 5834 5834 5834 5834 5835 5835 5834 5834 5834 5834 5834 5833 5832 5832 5831 5830 5828 5827 5825 5824 5822
5779 5782 5784 5787 5790 5793 5796 5798 5801 5804 5806 5809 5811 5813 5815 5817 5818 5819 5820 5821 5822 5823 5824 5824 5824 5824 5824 5825 5825 5825 5825 5825 5824 5824 5823 5822 5822 5821 5820 5818 5817 5815 5814 5813
5769 5772 5774 5776 5779 5782 5785 5788 5791 5793 5795 5797 5800 5803 5805 5807 5808 5808 5809 5810 5811 5812 5813 5813 5814 5814 5814 5814 5814 5814 5814 5814 5814 5813 5813 5812 5811 5810 5809 5808 5806 5805 5803 5802
5760 5763 5765 5767 5769 5772 5775 5777 5779 5782 5785 5787 5789 5791 5792 5793 5795 5797 5798 5799 5800 5801 5802 5802 5803 5803 5803 5803 5803 5803 5803 5803 5803 5802 5802 5801 5800 5799 5798 5797 5795 5794 5792 5791
5751 5754 5756 5758 5760 5762 5764 5767 5769 5772 5774 5776 5777 5779 5780 5782 5783 5785 5786 5788 5789 5789 5790 5791 5791 5791 5791 5791 5791 5791 5791 5791 5791 5790 5790 5789 5788 5788 5786 5785 5784 5783 5781 5780
5742 5744 5746 5748 5750 5752 5755 5757 5759 5761 5763 5764 5766 5767 5769 5770 5772 5773 5774 5776 5777 5777 5778 5779 5779 5779 5779 5779 5779 5779 5779 5779 5778 5778 5777 5777 5776 5775 5775 5774 5772 5771 5770 5768
5731 5734 5736 5738 5740 5742 5744 5746 5748 5750 5752 5754 5755 5756 5758 5759 5760 5762 5763 5764 5765 5766 5767 5767 5767 5768 5768 5768 5767 5767 5767 5767 5766 5765 5765 5764 5763 5762 5761 5761 5760 5759 5758 5756
5722 5724 5726 5728 5730 5732 5733 5736 5738 5740 5742 5743 5744 5745 5747 5748 5750 5751 5752 5753 5754 5754 5755 5756 5756 5757 5756 5756 5756 5755 5755 5754 5754 5753 5753 5752 5751 5750 5749 5748 5747 5746 5745 5744
5712 5714 5715 5718 5720 5722 5724 5726 5728 5730 5731 5733 5734 5735 5736 5738 5739 5740 5741 5741 5742 5744 5745 5745 5745 5745 5745 5744 5744 5743 5743 5743 5742 5741 5741 5740 5739 5737 5737 5736 5735 5734 5733 5732
5703 5704 5706 5709 5711 5713 5714 5716 5718 5720 5721 5723 5724 5725 5726 5727 5728 5729 5730 5731 5732 5734 5734 5735 5735 5735 5734 5733 5732 5732 5731 5731 5730 5730 5729 5728 5727 5726 5725 5724 5723 5723 5721 5720
5695 5697 5698 5700 5702 5704 5706 5708 5709 5711 5713 5713 5714 5715 5716 5717 5718 5719 5720 5722 5723 5724 5724 5724 5724 5724 5723 5722 5721 5721 5720 5720 5720 5719 5718 5717 5716 5715 5714 5713 5712 5711 5710 5709
5687 5689 5691 5692 5694 5696 5698 5700 5701 5703 5704 5705 5706 5707 5708 5709 5710 5711 5712 5713 5714 5715 5715 5715 5715 5714 5713 5712 5712 5711 5711 5710 5710 5709 5708 5707 5706 5704 5703 5702 5701 5700 5699 5698
5681 5683 5684 5686 5688 5689 5691 5693 5694 5696 5697 5698 5699 5700 5701 5702 5703 5705 5705 5706 5706 5706 5707 5706 5706 5705 5705 5704 5703 5702 5702 5702 5701 5700 5699 5698 5697 5695 5694 5693 5692 5691 5690 5688
5676 5678 5679 5681 5682 5684 5685 5686 5688 5689 5691 5693 5694 5695 5696 5696 5697 5698 5699 5699 5699 5699 5698 5698 5698 5698 5697 5696 5696 5695 5694 5694 5693 5692 5691 5690 5688 5687 5686 5684 5683 5682 5680 5679
5673 5674 5675 5676 5678 5679 5681 5682 5684 5685 5686 5688 5689 5690 5690 5691 5692 5693 5693 5693 5692 5692 5691 5691 5691 5691 5690 5689 5689 5689 5688 5687 5686 5685 5684 5682 5681 5680 5678 5677 5675 5673 5672 5670
5670 5671 5672 5673 5675 5676 5677 5679 5680 5681 5682 5683 5684 5685 5686 5687 5687 5688 5688 5687 5686 5686 5685 5685 5685 5685 5684 5684 5683 5683 5682 5680 5679 5678 5677 5675 5674 5673 5671 5669 5667 5665 5664 5662
5667 5668 5668 5670 5672 5674 5675 5676 5678 5678 5679 5680 5681 5682 5682 5682 5683 5683 5683 5682 5682 5680 5680 5679 5679 5679 5679 5678 5678 5677 5675 5674 5673 5671 5670 5669 5667 5665 5664 5662 5660 5658 5655 5653
5664 5665 5666 5668 5670 5671 5673 5674 5675 5676 5676 5677 5678 5678 5678 5678 5678 5678 5678 5678 5678 5677 5676 5675 5675 5674 5673 5672 5671 5670 5669 5668 5667 5665 5663 5662 5661 5659 5657 5655 5652 5650 5647 5645
5663 5664 5665 5667 5668 5669 5670 5671 5672 5672 5673 5674 5674 5674 5674 5674 5674 5674 5674 5674 5674 5673 5672 5671 5670 5669 5668 5667 5666 5665 5663 5662 5661 5659 5658 5656 5654 5652 5650 5647 5645 5642 5640 5637
5661 5662 5663 5665 5666 5667 5668 5669 5670 5670 5670 5670 5670 5671 5671 5671 5670 5670 5670 5670 5669 5668 5668 5667 5666 5665 5663 5662 5661 5659 5658 5656 5655 5653 5651 5649 5647 5645 5642 5640 5637 5635 5632 5629